Tracking 19795 objects as of 17-Jul-2019
HD Live streaming from Space Station
objects crossing your sky now

FENGYUN 1C DEB

Track FENGYUN 1C DEB now!
10-day predictions


NORAD ID: 40686
Int'l Code: 1999-025EWS
Perigee: 687.6 km
Apogee: 702.3 km
Inclination: 99.2 °
Period: 98.5 minutes
Semi major axis: 7065 km
RCS: Unknown
Launch date: May 10, 1999
Source: People's Republic of China (PRC)
Launch site: Taiyaun Space Center, China (TSC)

Note: This is SATELLITE DEBRIS
aabbcc
Your satellite tracking list
Your tracking list is empty




NASA's NSSDC Master Catalog

Two Line Element Set (TLE):
1 40686U 99025EWS 19196.21793963  .00002626  00000-0  53868-3 0  9994
2 40686  99.2402 199.1641 0010415  12.6217 347.5239 14.61672021241698
Source of the keplerian elements: AFSPC